Regional Weather Roundup
Issued by NWS

Home | Current Version | Previous Version | Text Only | Print | Product List | Glossary On
Versions: 1 2 3 4 5 6 7 8 9 10 11 12 13 14 15 16 17 18 19 20 21 22 23 24 25 26 27 28 29 30 31 32 33 34 35 36 37 38 39 40 41 42 43 44 45 46 47 48 49 50
000
ASUS44 KBMX 311310
RWRAL

ALABAMA REGIONAL WEATHER ROUNDUP
NATIONAL WEATHER SERVICE BIRMINGHAM AL
800 AM CDT THU JUL 31 2014

NOTE: "FAIR" INDICATES FEW OR NO CLOUDS BELOW 12,000 FEET
WITH NO SIGNIFICANT WEATHER AND/OR OBSTRUCTIONS TO VISIBILITY.

THE REMARK "TC" DENOTES TEMPERATURE IN DEGREES CELSIUS.

ALZ001>011-014-016>018-020-311400-
NORTH ALABAMA

CITY           SKY/WX    TMP DP  RH WIND       PRES   REMARKS
MUSCLE SHOALS  CLOUDY    70  61  73 CALM      30.11R
HUNTSVILLE     CLOUDY    70  63  78 N3        30.09R
DECATUR        CLOUDY    67  63  87 NE6       30.10R
HALEYVILLE     FAIR      67  62  84 CALM      30.12S
GADSDEN        CLOUDY    66  59  77 CALM      30.08R
$$

ALZ012-013-022-023-030>036-040>044-311400-
WEST CENTRAL ALABAMA

CITY           SKY/WX    TMP DP  RH WIND       PRES   REMARKS
TUSCALOOSA     CLOUDY    72  62  71 N6        30.07R
$$

ALZ015-024>027-033>036-040>044-311400-
CENTRAL ALABAMA

CITY           SKY/WX    TMP DP  RH WIND       PRES   REMARKS
BIRMINGHAM     CLOUDY    72  59  63 NW5       30.09R
MONTGOMERY     PTSUNNY   71  61  70 CALM      30.04R
SHELBY CO ARPT CLOUDY    74  58  57 CALM      30.06R
MAXWELL AFB    CLOUDY    70  62  75 N3        30.04R
GREENVILLE     FAIR      70  62  76 CALM      30.03R
$$

ALZ019-021-028-029-037-038-045>048-311400-
EAST CENTRAL ALABAMA

CITY           SKY/WX    TMP DP  RH WIND       PRES   REMARKS
ANNISTON       CLOUDY    69  58  67 E3        30.07R
ALEXANDER CITY CLOUDY    71  59  65 CALM      30.07R
AUBURN         CLOUDY    72  59  64 NE6       30.07S
$$

ALZ051>064-311400-
SOUTHWEST ALABAMA

CITY           SKY/WX    TMP DP  RH WIND       PRES   REMARKS
MOBILE         PTSUNNY   71  63  75 N6        30.04R
BROOKLEY FIELD SUNNY     72  64  76 N6        30.04R
EVERGREEN      MOSUNNY   68  62  81 CALM      30.04R
$$

ALZ049-050-065>069-311400-
SOUTHEAST ALABAMA

CITY           SKY/WX    TMP DP  RH WIND       PRES   REMARKS
DOTHAN         MOSUNNY   70  62  76 CALM      30.07R
OZARK          MOSUNNY   66  62  87 CALM      30.03R
TROY           MOSUNNY   68  63  84 CALM      30.04R
EUFAULA        FAIR      71  65  81 CALM      30.02R
$$


USA.gov is the U.S. government's official web portal to all federal, state and local government web resources and services.